This is the latest recevied weather packets stored in our database for station/object 9M2EVR-2. If no packets are shown the sender has not sent any weather packets the latest 10 day(s).
| Time | Temp. | Humidity | Pressure | Rain* | Wind** | Luminosity | Snow |
|---|---|---|---|---|---|---|---|
| 1778230515 | 37.22° C | 45% | 1004.1 hPa | - | - | - | - |
| 1778229614 | 37.78° C | 45% | 1003.5 hPa | - | - | - | - |
| 1778227024 | 37.78° C | 46% | 1002.8 hPa | - | - | - | - |
| 1778223527 | 42.22° C | 44% | 1003.6 hPa | - | - | - | - |
| 1778222622 | 41.67° C | 44% | 1003.7 hPa | - | - | - | - |
| 1778221721 | 41.67° C | 42% | 1003.6 hPa | - | - | - | - |
| 1778220820 | 42.78° C | 40% | 1003.9 hPa | - | - | - | - |
| 1778219920 | 43.89° C | 39% | 1004.2 hPa | - | - | - | - |
| 1778219019 | 43.89° C | 39% | 1004.3 hPa | - | - | - | - |
| 1778218118 | 44.44° C | 38% | 1004.6 hPa | - | - | - | - |
| 1778217217 | 43.89° C | 38% | 1004.8 hPa | - | - | - | - |
| 1778216317 | 43.89° C | 38% | 1005.1 hPa | - | - | - | - |
| 1778215416 | 43.89° C | 39% | 1005.2 hPa | - | - | - | - |
| 1778214515 | 43.33° C | 39% | 1005.4 hPa | - | - | - | - |
| 1778213614 | 43.33° C | 40% | 1005.7 hPa | - | - | - | - |
| 1778212713 | 42.78° C | 42% | 1006.2 hPa | - | - | - | - |
| 1778211812 | 42.22° C | 43% | 1006.6 hPa | - | - | - | - |
| 1778210912 | 41.67° C | 43% | 1006.6 hPa | - | - | - | - |
| 1778210011 | 41.67° C | 43% | 1006.7 hPa | - | - | - | - |
| 1778209110 | 41.67° C | 43% | 1006.9 hPa | - | - | - | - |
| 1778208209 | 41.11° C | 42% | 1007 hPa | - | - | - | - |
| 1778207308 | 41.11° C | 44% | 1007.1 hPa | - | - | - | - |
| 1778206408 | 41.11° C | 45% | 1007.1 hPa | - | - | - | - |
| 1778205507 | 41.11° C | 45% | 1007.1 hPa | - | - | - | - |
| 1778204606 | 40° C | 46% | 1007.2 hPa | - | - | - | - |
* Rain since midnight (hover to see other rain measurements)
** Current wind speed in m/s (hover to see current wind gust speed)